{"data":{"norad_id":67972,"epoch":"2026-05-24T23:55:12.783936Z","epoch_age_seconds":71741,"freshness":"FRESH","line1":"1 67972U 26038M   26144.99667574  .00019343  00000+0  59987-3 0  9990","line2":"2 67972  97.2836 155.0307 0001786  96.3132 263.8315 15.33447582 14932","mean_motion":15.33447582,"eccentricity":0.0001786,"inclination_deg":97.2836,"raan_deg":155.0307,"arg_perigee_deg":96.3132,"mean_anomaly_deg":263.8315,"bstar":0.00059987,"rev_number":1493,"period_min":93.906046538733,"perigee_km":464.31321236638,"apogee_km":466.75777218062,"semimajor_km":6843.6724922735,"source":"CELESTRAK","updated_at":"2026-05-25T13:38:21.775161Z"}}